Probability
0 0 0 0 0 0 0 0 0 0 0 0 0 0 0 0 0 1 0 2 9 24 44 59 67 74 77 73 65 59 58 57 51 42 32 22 13 7 3 1 0 0 0 0 0 0 0 0 0
0 0 0 0 0 0 0 0 0 0 0 0 0 0 0 0 1 1 1 3 11 26 44 57 65 72 75 72 64 58 55 55 52 43 34 26 16 9 4 1 1 1 0 0 0 0 0 0 0
0 0 0 0 0 0 0 0 0 0 0 0 0 0 0 1 1 2 3 6 15 29 42 53 61 67 71 71 65 57 52 52 51 45 37 30 22 13 6 4 3 2 1 0 0 0 0 0 0
0 0 0 0 0 0 0 0 0 0 0 0 0 0 1 2 3 4 5 9 18 29 39 49 55 59 63 66 64 57 51 49 49 45 39 32 24 17 11 8 6 4 2 0 0 0 0 0 0
0 0 0 0 0 0 0 0 0 0 0 0 0 0 1 3 5 6 7 11 19 29 37 44 50 54 56 58 58 56 52 49 46 44 40 34 26 20 16 12 9 6 3 1 0 0 0 0 0
0 0 0 0 0 0 0 0 0 0 0 0 0 0 1 3 4 6 8 12 20 29 35 40 45 49 52 54 54 53 52 50 46 44 41 35 29 25 19 13 9 7 3 1 0 0 0 0 0
0 0 0 0 0 0 0 0 0 0 0 0 0 1 2 4 5 7 10 13 20 28 33 37 39 43 48 51 51 51 50 48 45 41 38 34 29 25 18 10 7 5 2 0 0 0 0 0 0
0 0 0 0 0 0 0 0 0 0 0 0 0 1 2 5 7 10 12 15 20 25 29 33 34 37 41 44 47 47 44 43 41 36 29 25 23 20 15 7 4 3 1 0 0 0 0 0 0
0 0 0 0 0 0 0 0 0 0 0 0 0 0 1 4 8 12 14 15 18 21 23 26 29 32 35 37 40 40 37 35 34 29 22 18 17 15 10 5 2 1 0 0 0 0 0 0 0
0 0 0 0 0 0 0 0 0 0 0 0 0 0 1 3 6 11 13 13 15 18 19 20 23 27 30 31 33 34 30 27 26 23 19 17 14 11 7 3 1 0 0 0 0 0 0 0 0
0 0 0 0 0 0 0 0 0 0 0 0 0 0 1 2 3 6 9 11 12 14 15 15 17 20 23 24 26 28 25 22 20 18 17 17 13 9 5 2 0 0 0 0 0 0 0 0 0
0 0 0 0 0 0 0 0 0 0 0 0 0 0 0 1 1 3 5 8 9 10 9 8 9 12 14 15 18 22 22 20 18 16 16 17 14 9 6 3 1 0 0 0 0 0 0 0 0
0 0 0 0 0 0 0 0 0 0 0 0 0 0 0 0 0 1 4 6 6 5 4 4 5 7 8 10 13 17 18 17 16 15 14 16 14 10 7 4 1 0 0 0 0 0 0 0 0
0 0 0 0 0 0 0 0 0 0 0 0 0 0 0 0 0 1 3 5 5 4 4 4 4 4 6 8 11 15 16 15 12 12 13 13 13 10 8 6 3 1 0 0 0 0 0 0 0
0 0 0 0 0 0 0 0 0 0 0 0 0 0 0 0 0 1 3 4 4 3 3 4 3 2 4 7 10 13 14 12 9 9 11 12 11 9 8 7 4 1 0 0 0 0 0 0 0
0 0 0 0 0 0 0 0 0 0 0 0 0 0 0 0 0 1 2 3 3 1 1 2 1 1 3 6 9 10 10 8 6 7 9 9 9 8 8 7 4 1 0 0 0 0 0 0 0
0 0 0 0 0 0 0 0 0 0 0 0 0 0 0 0 0 1 2 3 2 1 0 0 0 0 2 5 8 8 7 5 5 7 7 6 7 7 7 7 5 2 0 0 0 0 0 0 0
0 0 0 0 0 0 0 0 0 0 0 0 0 0 0 0 0 1 2 2 1 0 0 0 0 0 1 3 5 6 5 4 4 6 6 5 5 6 6 6 4 1 0 0 0 0 0 0 0
0 0 0 0 0 0 0 0 0 0 0 0 0 0 0 0 0 0 1 1 0 0 0 0 0 0 0 1 3 4 4 3 4 6 5 3 3 5 6 5 3 1 0 0 0 0 0 0 0
0 0 0 0 0 0 0 0 0 0 0 0 0 0 0 0 0 0 0 0 0 0 0 0 0 0 0 0 1 3 3 3 4 5 4 2 2 4 6 5 3 1 0 0 0 0 0 0 0
0 0 0 0 0 0 0 0 0 0 0 0 0 0 0 0 0 0 0 0 0 0 0 0 0 0 0 0 1 2 3 3 3 3 2 0 1 2 3 4 3 1 0 0 0 0 0 0 0
0 0 0 0 0 0 0 0 0 0 0 0 0 0 0 0 0 0 0 0 0 0 0 0 0 0 0 0 0 1 2 2 1 1 0 0 0 1 1 3 2 1 0 0 0 0 0 0 0
0 0 0 0 0 0 0 0 0 0 0 0 0 0 0 0 0 0 0 0 0 0 0 0 0 0 0 0 0 0 1 1 0 0 0 0 0 0 1 2 2 1 0 0 0 0 0 0 0
0 0 0 0 0 0 0 0 0 0 0 0 0 0 0 0 0 0 0 0 0 0 0 0 0 0 0 0 0 0 0 0 0 0 0 0 0 0 0 1 1 0 0 0 0 0 0 0 0
0 0 0 0 0 0 0 0 0 0 0 0 0 0 0 0 0 0 0 0 0 0 0 0 1 1 1 0 0 0 0 0 0 0 0 0 0 0 0 0 0 0 0 0 0 0 0 0 0
0 0 0 0 0 0 0 0 0 0 0 0 0 0 0 0 0 0 0 0 0 0 0 0 1 1 1 0 0 0 0 0 0 0 0 0 0 0 0 0 0 0 0 0 0 0 0 0 0
0 0 0 0 0 0 0 0 0 0 0 0 0 0 0 0 0 0 0 0 0 0 0 0 0 0 0 0 0 0 0 0 0 0 0 0 0 0 0 0 0 0 0 0 0 0 0 0 0
0 0 0 0 0 0 0 0 0 0 0 0 0 0 0 0 0 0 0 0 0 0 0 0 0 0 0 0 0 0 0 0 0 0 0 0 0 0 0 0 0 0 0 0 0 0 0 0 1
0 0 0 0 0 0 0 0 0 0 0 0 0 0 0 0 0 0 0 0 0 0 0 0 0 0 0 0 0 0 0 0 0 0 0 0 0 0 0 0 0 0 0 0 0 0 0 1 2
0 0 0 0 0 0 0 0 0 0 0 0 0 0 0 0 0 0 0 0 0 0 0 0 0 0 0 0 0 0 0 0 0 0 0 0 0 0 0 0 0 0 0 0 0 0 1 2 3
Wind_Speed
7 4 3 4 5 1 6 6 3 2 2 2 2 3 4 4 4 4 3 2 2 3 7 11 15 16 17 17 17 16 16 17 18 18 19 19 19 19 18 18 17 17 17 17 17 17 17 17 17
2 3 5 5 4 4 7 5 5 4 2 4 3 2 2 4 3 3 4 4 2 3 5 8 12 16 17 17 17 17 17 17 17 18 18 19 19 18 18 18 17 17 17 17 17 17 17 16 16
3 5 4 4 4 7 6 3 4 4 3 2 3 2 2 3 3 3 4 3 1 2 3 6 11 14 16 16 16 17 17 17 17 17 17 18 18 18 18 17 17 17 16 16 16 16 16 15 15
4 5 5 2 7 6 4 2 1 5 4 2 1 5 4 1 2 3 4 2 1 1 2 5 9 13 15 16 16 17 17 17 17 17 17 18 18 18 17 16 16 16 16 16 16 16 15 14 14
4 5 3 3 6 4 4 4 2 3 3 3 2 4 5 2 3 3 3 2 0 1 2 4 8 11 14 16 17 16 16 16 17 17 17 18 18 17 17 16 17 17 17 16 16 15 15 14 13
5 4 2 5 6 4 4 4 2 3 3 3 2 4 5 2 3 3 3 2 1 1 1 3 8 9 12 14 16 16 16 15 16 17 17 17 17 17 17 17 17 17 17 16 16 15 14 14 14
4 4 3 4 4 5 4 2 2 3 4 4 2 3 5 3 4 4 3 3 2 1 1 2 4 6 9 12 13 14 15 15 15 15 15 14 14 15 17 17 17 16 16 15 15 14 14 13 13
4 4 2 3 4 5 3 1 2 3 5 3 2 4 5 4 4 4 4 3 2 1 1 1 3 4 5 7 11 12 13 14 14 13 13 12 13 14 15 14 15 15 15 14 14 14 13 13 12
3 2 4 5 5 5 2 2 3 2 4 4 4 5 6 6 4 4 3 4 3 2 2 2 2 3 4 6 8 10 11 12 12 11 12 11 8 9 10 11 13 14 14 13 13 13 12 10 10
3 3 6 5 4 4 4 4 4 4 5 5 6 6 6 4 2 2 4 4 4 4 4 3 2 4 5 5 5 5 6 7 7 7 9 7 6 6 8 11 12 13 12 12 12 12 11 7 4
3 6 4 5 6 5 6 6 4 5 8 7 8 8 6 5 4 4 5 5 5 5 4 4 3 3 5 4 4 3 4 4 5 7 8 7 6 5 5 5 6 7 8 6 7 7 4 4 4
3 5 5 5 4 5 6 5 5 7 11 8 8 7 6 6 6 6 6 6 5 4 4 4 4 3 5 4 4 4 4 4 5 6 8 7 6 6 5 4 5 5 4 5 4 4 4 4 4
4 5 5 7 8 7 8 9 8 10 11 8 7 7 7 7 6 6 5 6 4 5 4 4 3 4 5 5 4 5 5 6 6 6 7 8 7 7 6 5 5 5 4 5 5 5 5 4 4
3 5 7 7 7 5 6 9 6 9 7 6 7 8 7 7 6 6 5 5 4 5 4 4 3 4 4 4 4 4 5 5 6 6 7 9 7 7 7 7 6 6 5 5 5 6 5 4 4
2 4 7 4 4 3 3 7 5 9 6 7 7 8 7 6 5 6 5 5 4 4 4 5 4 4 5 5 5 4 4 5 6 6 7 8 8 8 7 7 7 6 6 6 5 5 4 4 3
1 2 4 4 2 2 1 8 7 6 4 6 7 6 6 5 5 4 4 4 3 3 4 4 4 4 4 5 5 4 4 5 5 6 7 9 9 9 7 7 6 6 6 6 5 5 4 4 4
2 2 4 6 3 2 1 7 8 7 5 6 6 6 6 6 5 4 4 3 3 4 4 3 3 4 4 5 5 4 4 4 5 5 6 8 9 9 8 7 6 7 6 6 6 5 4 4 4
2 3 3 5 4 2 3 8 10 8 5 6 6 5 5 5 6 5 3 3 3 2 2 3 3 4 5 4 4 3 4 4 4 5 6 8 8 9 8 6 7 7 6 6 6 6 4 4 4
2 2 6 6 4 3 5 9 10 8 5 6 6 6 5 5 6 5 3 3 2 1 2 3 3 4 4 3 4 4 5 4 4 5 7 8 8 9 8 6 7 7 7 7 7 5 5 4 4
2 3 5 6 3 3 5 9 7 6 4 5 6 6 6 6 6 5 3 2 2 2 2 3 4 4 4 3 3 3 4 4 5 5 6 8 9 10 9 8 8 8 6 7 8 6 4 3 5
3 3 4 5 5 3 5 7 5 4 3 4 5 5 6 6 7 6 4 3 2 2 2 2 3 4 4 3 2 2 2 2 3 4 5 7 9 9 9 10 9 8 8 8 9 9 8 5 5
4 4 4 4 3 4 3 5 6 5 6 7 7 7 7 7 7 5 4 3 3 3 2 2 2 3 3 3 3 5 4 4 4 5 5 6 8 9 9 9 10 9 8 8 9 9 7 8 6
4 2 2 2 2 3 2 2 7 5 6 9 8 8 8 8 7 6 5 4 4 3 3 2 2 3 3 3 4 5 4 3 3 4 5 6 6 7 8 8 9 9 8 9 9 8 8 7 7
2 2 1 1 1 2 2 2 6 3 6 9 9 9 8 8 7 7 7 5 5 5 4 3 2 2 2 2 3 4 5 4 4 5 5 5 4 5 7 7 8 8 8 9 9 9 9 8 7
2 3 4 5 4 4 2 2 6 4 5 6 8 8 7 7 7 8 8 7 6 6 6 4 4 3 2 2 3 4 5 5 5 5 5 4 4 4 6 6 7 7 7 8 7 8 9 9 9
0 2 3 1 3 5 3 4 6 4 5 5 5 5 7 8 7 7 7 7 6 6 6 5 5 5 4 2 2 3 3 3 4 5 5 5 4 5 6 7 7 7 8 8 8 7 8 8 9
2 1 2 3 0 3 4 6 7 3 5 6 7 7 8 8 8 8 8 8 7 7 7 6 5 5 4 3 1 0 1 2 2 3 3 3 3 4 6 7 7 7 8 8 8 7 8 8 8
2 3 3 2 1 3 5 4 5 6 6 6 7 8 8 8 8 8 8 8 7 7 6 6 5 4 4 3 2 1 1 1 1 1 2 3 4 4 5 6 7 7 8 8 8 7 7 8 8
1 2 2 2 2 2 3 5 3 3 3 4 5 6 6 8 8 8 7 7 7 7 7 6 5 5 5 5 4 3 2 1 1 1 2 3 3 4 5 6 6 7 7 8 9 8 8 9 8
2 2 3 2 2 2 2 7 3 1 1 2 4 5 5 6 6 7 7 7 7 7 7 7 7 6 5 5 4 4 3 2 2 1 2 2 3 3 4 5 6 6 6 7 9 9 9 9 10
Wind_Direction
3 7 46 56 61 63 237 236 226 240 235 250 253 228 209 209 193 222 309 357 355 160 166 169 167 165 162 159 155 152 150 148 147 147 146 146 145 144 142 141 140 136 131 129 126 123 119 115 112
358 23 52 65 119 215 250 233 227 232 267 307 300 263 253 260 273 305 335 328 351 152 162 166 166 166 164 161 159 157 155 153 151 150 150 149 148 147 145 144 142 137 133 130 128 125 121 119 116
32 47 79 95 175 205 228 224 232 278 299 318 317 296 247 261 309 319 317 306 20 129 154 163 165 166 165 162 162 161 160 158 156 154 153 151 150 149 148 147 142 137 134 132 130 128 125 123 120
63 49 58 113 225 228 233 251 282 315 324 322 317 299 282 300 315 307 324 338 84 124 156 166 167 169 170 167 164 164 164 164 161 158 156 155 154 153 151 146 140 137 136 136 134 132 129 127 124
58 77 87 243 246 252 256 261 268 286 294 303 307 281 280 300 310 314 340 343 172 181 167 178 171 175 174 172 168 166 166 167 166 163 161 160 158 156 151 145 141 141 141 140 137 135 133 131 129
62 77 136 238 250 263 262 252 249 256 266 287 280 262 259 283 342 330 337 331 293 217 181 188 181 177 177 176 174 171 170 169 167 169 167 164 161 156 151 148 146 147 147 145 142 140 136 135 132
107 120 194 232 261 266 255 240 219 239 262 261 254 265 275 294 318 330 338 327 311 245 169 193 189 180 179 175 174 175 172 170 168 168 167 163 161 157 154 152 152 153 152 149 147 144 140 138 136
120 119 202 234 242 258 260 261 238 234 259 255 210 231 262 287 317 332 347 337 309 269 206 193 198 180 178 177 176 176 173 171 170 168 162 158 159 158 156 155 156 156 155 152 149 147 144 140 139
92 101 224 225 220 249 262 278 285 267 255 262 237 238 262 290 323 342 335 334 303 276 252 198 196 184 178 176 174 174 173 169 167 165 158 154 155 155 156 157 158 158 157 155 153 149 144 137 137
109 191 229 224 219 252 281 270 282 292 278 269 270 265 279 284 293 297 293 288 284 261 244 212 197 191 180 180 171 171 171 168 164 161 158 152 150 155 156 158 159 159 157 156 154 148 140 129 128
171 213 240 255 252 263 277 277 265 257 263 252 261 278 287 289 290 275 268 261 264 258 246 221 199 201 181 177 170 172 167 163 162 160 158 151 148 149 151 155 156 155 154 150 149 138 133 135 139
208 242 241 260 266 269 268 273 268 240 250 261 261 271 283 290 282 274 274 271 263 258 256 240 210 203 188 181 176 172 171 166 166 165 161 157 157 157 158 162 160 159 156 152 146 142 143 143 147
227 262 261 264 275 267 266 260 263 262 265 273 278 282 276 275 275 267 263 267 260 252 244 249 226 214 193 181 184 175 179 176 171 169 170 167 164 166 165 166 167 166 161 161 157 153 153 154 155
244 263 281 280 270 265 261 273 258 268 273 280 278 278 275 271 271 274 268 256 257 252 241 232 228 222 192 180 184 177 179 180 176 176 176 173 169 170 171 172 173 174 173 170 167 164 161 162 162
284 302 304 283 268 273 281 294 263 274 282 282 283 283 283 282 278 271 265 255 249 249 241 230 220 224 199 185 188 180 175 178 180 177 177 176 172 172 174 177 180 181 174 169 161 158 153 159 167
346 336 310 309 319 306 343 288 300 305 307 286 288 292 298 298 285 273 264 258 251 251 241 230 223 222 210 190 191 184 182 183 182 179 178 181 179 176 175 180 183 177 171 172 170 168 165 170 173
6 319 295 310 331 345 323 282 306 325 326 306 305 309 314 315 309 292 271 260 241 234 233 234 230 228 223 198 188 184 183 191 189 182 183 185 182 180 179 182 182 175 176 177 179 173 166 169 175
271 287 295 296 319 354 299 285 303 322 332 315 313 311 315 318 304 297 283 260 243 227 224 222 228 234 227 204 182 179 184 192 194 187 189 188 184 181 180 179 179 177 179 180 181 175 169 168 164
258 269 287 283 286 308 289 295 304 314 326 323 324 326 319 311 300 302 276 264 261 240 229 223 235 236 222 203 184 186 195 190 195 196 190 190 187 184 183 180 179 182 186 186 180 174 170 169 148
251 280 290 294 293 277 293 295 300 309 308 313 325 333 329 320 321 312 305 306 271 250 242 239 243 243 231 212 191 185 182 186 194 196 188 192 190 188 189 184 184 186 186 184 184 172 170 173 169
256 236 259 282 315 314 315 313 325 327 338 345 343 331 333 333 325 318 315 301 298 289 257 240 246 249 238 215 188 173 165 159 188 197 194 195 193 191 190 191 188 187 187 192 191 186 179 181 191
266 241 246 284 332 322 6 313 313 328 342 347 345 343 341 337 336 337 337 336 332 311 295 262 257 258 247 216 196 190 190 192 207 198 197 196 196 196 194 194 194 192 192 194 195 194 192 180 187
240 271 254 265 266 305 336 268 298 337 339 338 340 338 338 337 343 353 356 353 348 340 337 316 289 273 247 213 205 197 197 200 201 192 197 198 198 198 198 197 199 197 197 198 195 192 196 194 191
247 349 357 26 54 316 284 231 297 319 315 323 331 336 341 343 350 0 0 5 2 1 356 340 325 301 275 222 214 207 201 197 191 189 199 199 196 197 202 201 202 203 202 201 198 196 198 203 199
51 59 21 4 6 275 289 238 268 296 311 313 324 336 343 348 1 4 2 1 2 2 359 357 353 330 312 261 234 223 209 201 198 197 201 202 201 206 206 207 207 208 208 205 201 199 199 202 202
64 120 138 210 267 296 323 269 272 303 327 336 339 345 355 1 4 1 359 359 358 0 360 0 354 344 335 302 257 220 206 206 204 204 203 209 210 210 208 209 209 210 209 208 203 205 204 202 207
106 110 160 136 295 297 296 297 304 336 357 1 359 4 2 359 358 359 359 360 360 1 358 354 352 345 348 351 349 329 224 216 218 217 211 212 216 214 212 211 211 211 208 207 204 210 207 204 208
114 139 93 97 72 307 309 300 300 322 332 345 351 354 353 354 356 360 359 358 358 354 349 351 358 356 357 3 359 3 356 308 249 235 235 224 223 217 213 217 213 211 208 205 206 211 208 206 210
81 92 105 114 154 169 297 287 268 281 306 325 335 345 351 353 357 358 354 352 353 356 356 356 1 7 4 4 4 3 353 335 320 272 250 239 227 219 216 217 217 215 213 207 206 209 208 210 213
170 169 152 148 239 183 213 273 313 294 309 329 335 345 352 354 353 353 351 353 357 357 359 4 4 4 360 356 3 357 350 354 342 310 289 269 246 231 223 217 216 218 219 215 210 211 211 212 213